Hourly Data Report for September 24, 2017

All times are specified in Local Standard Time (LST). Add 1 hour to adjust for Daylight Saving Time where and when it is observed.

SUMMERSIDE
PRINCE EDWARD ISLAND

46°26'28.000" N
63°50'17.000" W
12.20 m
8300596
71702
WSD

Download Data

Hourly Data (September 2017)
Hourly Data Report for September 24, 2017
Temp Definition
°C
Dew Point Temp Definition
°C
Rel Hum Definition
%
Wind Dir Definition
10's deg

Wind Spd Definition
km/h
Visibility Definition
km
Stn Press Definition
kPa
Hmdx Definition


Wind Chill Definition


Weather Definition


TIME
00:00 12.8 10.6 87 6 10   101.57     LegendNANA
01:00 13.8 11.4 86 11 10   101.58     LegendNANA
02:00 13.0 10.4 84 13 6   101.57     LegendNANA
03:00 9.7 8.8 94 10 2   101.58     LegendNANA
04:00 10.7 9.6 93 7 2   101.59     LegendNANA
05:00 11.3 9.7 90 14 10   101.54     LegendNANA
06:00 9.1 7.9 92 19 3   101.56     LegendNANA
07:00 11.5 10.7 94 17 6   101.55     LegendNANA
08:00 15.9 12.8 82 16 15   101.56     LegendNANA
09:00 17.8 13.9 78 16 17   101.54     LegendNANA
10:00 18.5 13.8 74 17 15   101.50     LegendNANA
11:00 18.8 13.7 72 14 6   101.48     LegendNANA
12:00 19.8 13.5 67 15 17   101.33     LegendNANA
13:00 19.4 14.3 72 15 9   101.36     LegendNANA
14:00 20.7 15.3 71 18 11   101.24 25   LegendNANA
15:00 21.0 14.9 68 20 8   101.25 25   LegendNANA
16:00 20.8 15.1 70 21 4   101.29 25   LegendNANA
17:00 20.8 16.1 75 19 2   101.30 25   LegendNANA
18:00 20.0 16.0 78 4 11   101.33 25   LegendNANA
19:00 19.2 15.5 79 1 8   101.41     LegendNANA
20:00 18.4 14.3 77 1 12   101.48     LegendNANA
21:00 17.0 14.2 84 2 14   101.54     LegendNANA
22:00 16.0 13.9 88 1 13   101.54     LegendNANA
23:00 14.3 13.0 92 33 9   101.56     LegendNANA

Notes on Data Quality.

Legend

  • E = Estimated
  • M = Missing
  • NA = Not Available
  • ‡ = Partner data that is not subject to review by the National Climate Archives
Date modified: